ENY3639 KHXD-KCLT

Flight info

Callsign ENY3639
Flight time 0h 47m
Altitude 23000
Route CHS STOCR4
Aircraft E75L/M-SDE3GILORVW/S

Departure

Time 2026-05-06 23:59
Airport Hilton Head Airport (KHXD)

Arrival

Time 2026-05-07 00:47
Airport Charlotte Douglas International Airport (KCLT)
Time Latitude Longitude Altitude Speed Heading
2026-05-06 23:45 32.22606 -80.69864 24 ft 0 kts 359°
2026-05-06 23:50 32.22589 -80.69865 24 ft 4 kts 17°
2026-05-06 23:50 32.22575 -80.69876 23 ft 0 kts 65°
2026-05-06 23:52 32.22576 -80.69870 23 ft 3 kts 82°
2026-05-06 23:53 32.22581 -80.69829 24 ft 5 kts 81°
2026-05-06 23:53 32.22584 -80.69815 24 ft 2 kts 77°
2026-05-06 23:53 32.22590 -80.69784 25 ft 3 kts 76°
2026-05-06 23:53 32.22594 -80.69772 25 ft 0 kts 63°
2026-05-06 23:54 32.22615 -80.69754 25 ft 10 kts 27°
2026-05-06 23:54 32.22687 -80.69712 24 ft 13 kts 26°
2026-05-06 23:54 32.22778 -80.69660 22 ft 16 kts 26°
2026-05-06 23:55 32.22875 -80.69605 23 ft 17 kts 27°
2026-05-06 23:55 32.22934 -80.69569 21 ft 19 kts 26°
2026-05-06 23:55 32.23044 -80.69507 18 ft 12 kts 25°
2026-05-06 23:55 32.23085 -80.69480 21 ft 2 kts 47°
2026-05-06 23:56 32.23085 -80.69479 21 ft 0 kts 48°
2026-05-06 23:56 32.23086 -80.69479 20 ft 1 kts 50°
2026-05-06 23:56 32.23090 -80.69459 20 ft 5 kts 94°
2026-05-06 23:56 32.23075 -80.69418 20 ft 7 kts 116°
2026-05-06 23:57 32.23059 -80.69389 19 ft 1 kts 161°
2026-05-06 23:57 32.23056 -80.69390 19 ft 0 kts 201°
2026-05-06 23:57 32.23055 -80.69391 19 ft 0 kts 206°
2026-05-06 23:59 32.23027 -80.69407 18 ft 28 kts 206°
2026-05-06 23:59 32.22595 -80.69657 28 ft 108 kts 206°
2026-05-06 23:59 32.21822 -80.70101 578 ft 121 kts 205°
2026-05-06 23:59 32.21017 -80.70278 1104 ft 125 kts 165°
2026-05-07 00:00 32.20347 -80.69596 1414 ft 145 kts 124°
2026-05-07 00:00 32.20220 -80.68430 1763 ft 165 kts 83°
2026-05-07 00:00 32.20622 -80.67120 2186 ft 179 kts 75°
2026-05-07 00:00 32.21059 -80.65712 2792 ft 187 kts 72°
2026-05-07 00:01 32.21472 -80.64322 3343 ft 201 kts 71°
2026-05-07 00:01 32.21918 -80.62689 3935 ft 216 kts 72°
2026-05-07 00:01 32.22377 -80.60960 4542 ft 230 kts 72°
2026-05-07 00:01 32.22840 -80.59112 5150 ft 241 kts 73°
2026-05-07 00:02 32.23313 -80.57165 5720 ft 252 kts 73°
2026-05-07 00:02 32.23828 -80.55121 6333 ft 267 kts 73°
2026-05-07 00:02 32.24365 -80.53035 6767 ft 288 kts 72°
2026-05-07 00:02 32.24955 -80.50828 7336 ft 301 kts 68°
2026-05-07 00:03 32.26032 -80.48688 8082 ft 306 kts 45°
2026-05-07 00:03 32.27590 -80.47128 8831 ft 307 kts 33°
2026-05-07 00:03 32.29360 -80.45698 9597 ft 310 kts 27°
2026-05-07 00:03 32.31138 -80.44339 10243 ft 317 kts 28°
2026-05-07 00:04 32.33067 -80.42895 10501 ft 336 kts 28°
2026-05-07 00:04 32.35085 -80.41456 10859 ft 350 kts 27°
2026-05-07 00:04 32.37175 -80.39943 11239 ft 362 kts 27°
2026-05-07 00:04 32.39359 -80.38409 11818 ft 366 kts 27°
2026-05-07 00:05 32.41561 -80.36881 12514 ft 368 kts 26°
2026-05-07 00:05 32.43678 -80.35417 13198 ft 370 kts 26°
2026-05-07 00:05 32.45832 -80.33929 13912 ft 372 kts 26°
2026-05-07 00:05 32.48088 -80.32380 14598 ft 376 kts 25°
2026-05-07 00:06 32.50270 -80.30884 15257 ft 379 kts 25°
2026-05-07 00:06 32.52575 -80.29308 15893 ft 385 kts 25°
2026-05-07 00:06 32.54821 -80.27771 16516 ft 388 kts 24°
2026-05-07 00:06 32.57164 -80.26171 17118 ft 392 kts 24°
2026-05-07 00:07 32.59508 -80.24568 17709 ft 396 kts 24°
2026-05-07 00:07 32.61908 -80.22929 18307 ft 400 kts 23°
2026-05-07 00:07 32.64283 -80.21304 18819 ft 403 kts 23°
2026-05-07 00:07 32.66639 -80.19694 19338 ft 406 kts 23°
2026-05-07 00:08 32.69030 -80.18060 19862 ft 408 kts 23°
2026-05-07 00:08 32.71505 -80.16367 20413 ft 411 kts 23°
2026-05-07 00:08 32.73852 -80.14762 20981 ft 413 kts 23°
2026-05-07 00:08 32.76341 -80.13060 21501 ft 416 kts 23°
2026-05-07 00:09 32.78806 -80.11373 21985 ft 420 kts 23°
2026-05-07 00:09 32.81276 -80.09681 22445 ft 424 kts 23°
2026-05-07 00:09 32.83843 -80.07922 22918 ft 426 kts 23°
2026-05-07 00:09 32.86459 -80.06131 23020 ft 436 kts 23°
2026-05-07 00:10 32.89118 -80.04439 22970 ft 425 kts 15°
2026-05-07 00:10 32.91899 -80.03408 22944 ft 414 kts
2026-05-07 00:10 32.94726 -80.03039 22941 ft 405 kts 356°
2026-05-07 00:10 32.97492 -80.02887 22947 ft 404 kts 355°
2026-05-07 00:11 33.00275 -80.02736 22986 ft 403 kts 355°
2026-05-07 00:11 33.03084 -80.02618 23008 ft 406 kts 355°
2026-05-07 00:11 33.05876 -80.02457 22961 ft 398 kts 355°
2026-05-07 00:11 33.08608 -80.02312 23066 ft 401 kts 355°
2026-05-07 00:12 33.11345 -80.02201 23029 ft 401 kts 355°
2026-05-07 00:12 33.14035 -80.02102 23038 ft 401 kts 354°
2026-05-07 00:12 33.16776 -80.02000 23025 ft 403 kts 354°
2026-05-07 00:12 33.19582 -80.01896 23024 ft 403 kts 355°
2026-05-07 00:13 33.22365 -80.01792 23025 ft 403 kts 354°
2026-05-07 00:13 33.25150 -80.01687 23025 ft 403 kts 355°
2026-05-07 00:13 33.27754 -80.01589 23024 ft 403 kts 354°
2026-05-07 00:13 33.30362 -80.01491 23048 ft 405 kts 354°
2026-05-07 00:14 33.33100 -80.01387 23045 ft 405 kts 354°
2026-05-07 00:14 33.35822 -80.01285 23043 ft 405 kts 354°
2026-05-07 00:14 33.38585 -80.01180 23040 ft 404 kts 354°
2026-05-07 00:14 33.41304 -80.01077 23039 ft 405 kts 354°
2026-05-07 00:15 33.43885 -80.00979 23032 ft 405 kts 354°
2026-05-07 00:15 33.46700 -80.00873 23022 ft 405 kts 354°
2026-05-07 00:15 33.49523 -80.00766 23004 ft 405 kts 354°
2026-05-07 00:15 33.52255 -80.00662 22999 ft 404 kts 354°
2026-05-07 00:16 33.54752 -80.00568 23000 ft 404 kts 354°
2026-05-07 00:16 33.57507 -80.00464 22999 ft 404 kts 354°
2026-05-07 00:16 33.60323 -80.00351 22991 ft 405 kts 355°
2026-05-07 00:16 33.63108 -80.00209 22987 ft 406 kts 355°
2026-05-07 00:17 33.65938 -80.00069 22991 ft 406 kts 355°
2026-05-07 00:17 33.68770 -79.99927 22991 ft 406 kts 355°
2026-05-07 00:17 33.71491 -79.99792 22988 ft 406 kts 355°
2026-05-07 00:17 33.74260 -79.99655 22991 ft 406 kts 355°
2026-05-07 00:18 33.77119 -79.99513 22988 ft 406 kts 355°
2026-05-07 00:18 33.79763 -79.99383 22992 ft 405 kts 355°
2026-05-07 00:18 33.82369 -79.99253 22976 ft 404 kts 355°
2026-05-07 00:18 33.85129 -79.99116 22992 ft 403 kts 355°
2026-05-07 00:19 33.87794 -79.98982 22963 ft 394 kts 355°
2026-05-07 00:19 33.90352 -79.98854 22971 ft 391 kts 355°
2026-05-07 00:19 33.93072 -79.98721 22988 ft 390 kts 354°
2026-05-07 00:19 33.95786 -79.98589 22985 ft 390 kts 354°
2026-05-07 00:20 33.98431 -79.98466 22985 ft 388 kts 353°
2026-05-07 00:20 34.00946 -79.98868 22994 ft 374 kts 336°
2026-05-07 00:20 34.03222 -80.00046 23008 ft 367 kts 328°
2026-05-07 00:20 34.05457 -80.01354 23005 ft 367 kts 328°
2026-05-07 00:21 34.07755 -80.02702 22980 ft 366 kts 328°
2026-05-07 00:21 34.10045 -80.04046 22974 ft 365 kts 328°
2026-05-07 00:21 34.12332 -80.05392 22972 ft 365 kts 328°
2026-05-07 00:21 34.14308 -80.06554 22978 ft 365 kts 327°
2026-05-07 00:22 34.16590 -80.07900 22975 ft 365 kts 327°
2026-05-07 00:22 34.18747 -80.09171 22974 ft 365 kts 327°
2026-05-07 00:22 34.20958 -80.10477 22973 ft 365 kts 327°
2026-05-07 00:22 34.23111 -80.11749 22974 ft 365 kts 327°
2026-05-07 00:23 34.25173 -80.12968 22974 ft 365 kts 327°
2026-05-07 00:23 34.27402 -80.14286 22974 ft 365 kts 327°
2026-05-07 00:23 34.29630 -80.15604 22973 ft 365 kts 327°
2026-05-07 00:23 34.31917 -80.16958 22985 ft 367 kts 327°
2026-05-07 00:24 34.34214 -80.18319 22991 ft 367 kts 327°
2026-05-07 00:24 34.36473 -80.19660 22972 ft 366 kts 327°
2026-05-07 00:24 34.38765 -80.21020 22969 ft 367 kts 327°
2026-05-07 00:24 34.41049 -80.22378 22419 ft 373 kts 327°
2026-05-07 00:25 34.43309 -80.23715 22229 ft 361 kts 327°
2026-05-07 00:25 34.45552 -80.25048 22230 ft 360 kts 327°
2026-05-07 00:25 34.47826 -80.26406 21674 ft 367 kts 327°
2026-05-07 00:25 34.50026 -80.27715 21139 ft 363 kts 327°
2026-05-07 00:26 34.52246 -80.29036 20592 ft 359 kts 327°
2026-05-07 00:26 34.54454 -80.30350 20047 ft 356 kts 327°
2026-05-07 00:26 34.56624 -80.31643 19514 ft 353 kts 327°
2026-05-07 00:26 34.58798 -80.32941 18987 ft 348 kts 327°
2026-05-07 00:27 34.60859 -80.34374 18459 ft 334 kts 317°
2026-05-07 00:27 34.62671 -80.36077 17910 ft 328 kts 316°
2026-05-07 00:27 34.64447 -80.37785 17321 ft 324 kts 316°
2026-05-07 00:27 34.66165 -80.39438 17277 ft 310 kts 316°
2026-05-07 00:28 34.67881 -80.41089 16771 ft 316 kts 316°
2026-05-07 00:28 34.69587 -80.42727 16353 ft 317 kts 316°
2026-05-07 00:28 34.71316 -80.44389 15960 ft 317 kts 316°
2026-05-07 00:28 34.73030 -80.46066 15545 ft 316 kts 315°
2026-05-07 00:29 34.74678 -80.47688 15169 ft 315 kts 315°
2026-05-07 00:29 34.76378 -80.49368 14783 ft 312 kts 315°
2026-05-07 00:30 34.81047 -80.54040 13751 ft 294 kts 314°
2026-05-07 00:30 34.82618 -80.55602 13366 ft 289 kts 314°
2026-05-07 00:30 34.84161 -80.57123 13109 ft 281 kts 314°
2026-05-07 00:30 34.85666 -80.58631 12896 ft 279 kts 313°
2026-05-07 00:31 34.87069 -80.60079 12656 ft 282 kts 313°
2026-05-07 00:31 34.88575 -80.61626 12517 ft 282 kts 314°
2026-05-07 00:31 34.90078 -80.63164 12321 ft 283 kts 314°
2026-05-07 00:31 34.91588 -80.64707 12144 ft 283 kts 314°
2026-05-07 00:32 34.93047 -80.66202 11977 ft 282 kts 313°
2026-05-07 00:32 34.94516 -80.67704 11810 ft 282 kts 314°
2026-05-07 00:32 34.95981 -80.69200 11638 ft 281 kts 314°
2026-05-07 00:32 34.97487 -80.70738 11459 ft 280 kts 314°
2026-05-07 00:33 34.98963 -80.72249 11290 ft 280 kts 314°
2026-05-07 00:33 35.00387 -80.73704 11144 ft 279 kts 314°
2026-05-07 00:33 35.01832 -80.75183 11085 ft 277 kts 314°
2026-05-07 00:33 35.03250 -80.76679 11019 ft 278 kts 313°
2026-05-07 00:34 35.04214 -80.77711 10968 ft 278 kts 313°
2026-05-07 00:34 35.06090 -80.79706 10954 ft 260 kts 312°
2026-05-07 00:34 35.07430 -80.81131 10796 ft 251 kts 313°
2026-05-07 00:34 35.08987 -80.82065 10626 ft 261 kts 347°
2026-05-07 00:35 35.10193 -80.82163 10607 ft 253 kts 347°
2026-05-07 00:35 35.11945 -80.82334 10380 ft 253 kts 347°
2026-05-07 00:35 35.13657 -80.82489 10094 ft 255 kts 348°
2026-05-07 00:35 35.15432 -80.82648 9813 ft 256 kts 348°
2026-05-07 00:36 35.17220 -80.82800 9288 ft 261 kts 348°
2026-05-07 00:36 35.19023 -80.82948 8842 ft 256 kts 348°
2026-05-07 00:36 35.20759 -80.83092 8346 ft 254 kts 348°
2026-05-07 00:36 35.22513 -80.83239 7905 ft 251 kts 348°
2026-05-07 00:37 35.24127 -80.83376 7479 ft 250 kts 348°
2026-05-07 00:37 35.25807 -80.83519 7029 ft 249 kts 347°
2026-05-07 00:37 35.27501 -80.83691 6599 ft 247 kts 347°
2026-05-07 00:37 35.29214 -80.83858 6145 ft 247 kts 347°
2026-05-07 00:38 35.30921 -80.84017 5728 ft 244 kts 347°
2026-05-07 00:38 35.32585 -80.84176 5356 ft 242 kts 346°
2026-05-07 00:38 35.34259 -80.84369 4973 ft 240 kts 347°
2026-05-07 00:38 35.35921 -80.84570 4676 ft 239 kts 346°
2026-05-07 00:39 35.37560 -80.84766 4515 ft 237 kts 346°
2026-05-07 00:39 35.39187 -80.84965 4259 ft 237 kts 346°
2026-05-07 00:39 35.40835 -80.85178 4039 ft 238 kts 345°
2026-05-07 00:39 35.42463 -80.85362 4037 ft 232 kts 346°
2026-05-07 00:40 35.44071 -80.85613 4021 ft 232 kts 336°
2026-05-07 00:40 35.45308 -80.86576 3717 ft 209 kts 300°
2026-05-07 00:40 35.45721 -80.88111 3441 ft 182 kts 263°
2026-05-07 00:40 35.45626 -80.89597 3210 ft 173 kts 262°
2026-05-07 00:41 35.45567 -80.90905 2978 ft 167 kts 262°
2026-05-07 00:41 35.45490 -80.92268 2985 ft 154 kts 252°
2026-05-07 00:41 35.44897 -80.93252 3010 ft 160 kts 212°
2026-05-07 00:41 35.43809 -80.93657 3084 ft 168 kts 202°
2026-05-07 00:42 35.42682 -80.94059 3057 ft 168 kts 202°
2026-05-07 00:42 35.41560 -80.94436 3063 ft 166 kts 201°
2026-05-07 00:42 35.40413 -80.94639 2999 ft 166 kts 188°
2026-05-07 00:42 35.39264 -80.94681 3011 ft 165 kts 192°
2026-05-07 00:43 35.38121 -80.94743 3004 ft 171 kts 188°
2026-05-07 00:43 35.36902 -80.94576 3017 ft 171 kts 187°
2026-05-07 00:43 35.35730 -80.94593 3024 ft 169 kts 190°
2026-05-07 00:43 35.34549 -80.94583 2996 ft 172 kts 184°
2026-05-07 00:44 35.33373 -80.94468 2858 ft 172 kts 185°
2026-05-07 00:44 35.32162 -80.94398 2641 ft 176 kts 183°
2026-05-07 00:44 35.31007 -80.94294 2402 ft 170 kts 185°
2026-05-07 00:44 35.29823 -80.94275 2184 ft 173 kts 186°
2026-05-07 00:45 35.28647 -80.94170 1978 ft 161 kts 182°
2026-05-07 00:45 35.27589 -80.94047 1767 ft 145 kts 183°
2026-05-07 00:45 35.26618 -80.93980 1576 ft 134 kts 179°
2026-05-07 00:45 35.25703 -80.93902 1418 ft 135 kts 181°
2026-05-07 00:46 35.24779 -80.93820 1216 ft 134 kts 178°
2026-05-07 00:46 35.23855 -80.93740 1059 ft 137 kts 180°
2026-05-07 00:46 35.23806 -80.93736 1042 ft 137 kts 180°
2026-05-07 00:46 35.23571 -80.93715 987 ft 136 kts 179°
2026-05-07 00:47 35.22643 -80.93631 812 ft 134 kts 178°
2026-05-07 00:47 35.21758 -80.93557 733 ft 104 kts 176°
2026-05-07 00:47 35.21320 -80.93520 731 ft 31 kts 176°
2026-05-07 00:47 35.21233 -80.93527 732 ft 6 kts 220°
2026-05-07 00:48 35.21215 -80.93575 732 ft 8 kts 263°
2026-05-07 00:48 35.21231 -80.93641 729 ft 9 kts 329°
2026-05-07 00:48 35.21296 -80.93650 731 ft 11 kts 356°
2026-05-07 00:48 35.21378 -80.93658 731 ft 13 kts 355°
2026-05-07 00:49 35.21469 -80.93666 731 ft 15 kts 355°
2026-05-07 00:49 35.21490 -80.93668 731 ft 16 kts 355°
2026-05-07 00:49 35.21586 -80.93709 730 ft 15 kts 309°
2026-05-07 00:49 35.21658 -80.93812 730 ft 17 kts 310°
2026-05-07 00:50 35.21746 -80.93918 730 ft 19 kts 319°
2026-05-07 00:50 35.21825 -80.93990 730 ft 10 kts 343°
2026-05-07 00:50 35.21876 -80.93972 730 ft 8 kts 30°
2026-05-07 00:50 35.21913 -80.93922 729 ft 9 kts 49°
2026-05-07 00:51 35.21937 -80.93889 730 ft 10 kts 47°
2026-05-07 00:51 35.21964 -80.93853 730 ft 11 kts 49°
2026-05-07 00:51 35.22029 -80.93800 730 ft 12 kts
2026-05-07 00:51 35.22113 -80.93807 730 ft 12 kts 354°
2026-05-07 00:52 35.22138 -80.93809 730 ft 11 kts 356°
2026-05-07 00:52 35.22168 -80.93811 730 ft 10 kts 357°
2026-05-07 00:52 35.22177 -80.93812 730 ft 10 kts 357°
2026-05-07 00:52 35.22187 -80.93812 730 ft 9 kts 356°
2026-05-07 00:53 35.22216 -80.93845 730 ft 6 kts 278°
2026-05-07 00:53 35.22215 -80.93881 730 ft 4 kts 265°
2026-05-07 00:53 35.22213 -80.93907 730 ft 2 kts 266°
2026-05-07 00:53 35.22213 -80.93919 730 ft 1 kts 268°
2026-05-07 00:54 35.22213 -80.93925 730 ft 2 kts 268°
2026-05-07 00:54 35.22230 -80.93949 730 ft 5 kts 353°
2026-05-07 00:54 35.22260 -80.93950 730 ft 3 kts 357°
2026-05-07 00:54 35.22266 -80.93951 730 ft 0 kts 357°